Time,TemperatureF,DewpointF,PressureIn,WindDirection,WindDirectionDegrees,WindSpeedMPH,WindSpeedGustMPH,Humidity,HourlyPrecipIn,Conditions,Clouds,dailyrainin,SoftwareType,DateUTC
2013-11-30 00:01:00,25.5,16.1,30.63,West,270,0.0,0.0,67,0.00,CLR,,0.00,WeatherDisplay:10.37,2013-11-30 05:01:00,
2013-11-30 00:02:00,25.5,16.1,30.63,West,270,0.0,0.0,67,0.00,CLR,,0.00,WeatherDisplay:10.37,2013-11-30 05:02:00,
2013-11-30 00:07:00,25.5,16.4,30.63,West,270,0.0,0.0,68,0.00,CLR,,0.00,WeatherDisplay:10.37,2013-11-30 05:07:00,
2013-11-30 00:12:00,25.3,16.2,30.63,WSW,248,0.0,0.0,68,0.00,CLR,,0.00,WeatherDisplay:10.37,2013-11-30 05:12:00,
2013-11-30 00:17:00,25.2,16.1,30.63,SW,225,0.0,0.0,68,0.00,CLR,,0.00,WeatherDisplay:10.37,2013-11-30 05:17:00,
2013-11-30 00:22:00,25.0,15.9,30.63,West,270,0.5,0.5,68,0.00,CLR,,0.00,WeatherDisplay:10.37,2013-11-30 05:22:00,
2013-11-30 00:27:00,25.0,15.9,30.63,SW,225,0.0,0.0,68,0.00,CLR,,0.00,WeatherDisplay:10.37,2013-11-30 05:27:00,
2013-11-30 00:32:00,24.8,15.7,30.63,WNW,292,0.0,0.0,68,0.00,CLR,,0.00,WeatherDisplay:10.37,2013-11-30 05:32:00,
2013-11-30 00:37:00,24.8,16.1,30.63,South,180,0.2,1.2,69,0.00,CLR,,0.00,WeatherDisplay:10.37,2013-11-30 05:37:00,
2013-11-30 00:42:00,24.6,15.9,30.63,NW,315,0.0,0.0,69,0.00,CLR,,0.00,WeatherDisplay:10.37,2013-11-30 05:42:00,
2013-11-30 00:47:00,24.6,15.9,30.63,SSW,202,0.5,1.2,69,0.00,CLR,,0.00,WeatherDisplay:10.37,2013-11-30 05:47:00,
2013-11-30 00:52:00,24.4,15.7,30.63,SSW,202,0.2,0.2,69,0.00,CLR,,0.00,WeatherDisplay:10.37,2013-11-30 05:52:00,
2013-11-30 00:57:00,24.4,15.7,30.63,WNW,292,0.5,0.5,69,0.00,CLR,,0.00,WeatherDisplay:10.37,2013-11-30 05:57:00,
2013-11-30 01:02:00,24.4,15.7,30.63,NNW,338,0.0,0.0,69,0.00,CLR,,0.00,WeatherDisplay:10.37,2013-11-30 06:02:00,
2013-11-30 01:07:00,24.3,15.5,30.63,SW,225,0.0,0.0,69,0.00,CLR,,0.00,WeatherDisplay:10.37,2013-11-30 06:07:00,
2013-11-30 01:12:00,24.3,15.2,30.63,WNW,292,0.2,0.0,68,0.00,CLR,,0.00,WeatherDisplay:10.37,2013-11-30 06:12:00,
2013-11-30 01:17:00,24.3,15.2,30.64,NW,315,0.0,1.2,68,0.00,CLR,,0.00,WeatherDisplay:10.37,2013-11-30 06:17:00,
2013-11-30 01:22:00,24.3,15.2,30.64,NW,315,0.0,1.2,68,0.00,CLR,,0.00,WeatherDisplay:10.37,2013-11-30 06:22:00,
2013-11-30 01:27:00,24.1,15.0,30.64,WSW,248,0.0,0.0,68,0.00,CLR,,0.00,WeatherDisplay:10.37,2013-11-30 06:27:00,
2013-11-30 01:32:00,24.1,15.0,30.64,NW,315,0.0,0.0,68,0.00,CLR,,0.00,WeatherDisplay:10.37,2013-11-30 06:32:00,
2013-11-30 01:37:00,24.1,15.0,30.64,SW,225,0.0,0.0,68,0.00,CLR,,0.00,WeatherDisplay:10.37,2013-11-30 06:37:00,
2013-11-30 01:42:00,23.9,14.9,30.64,WSW,248,0.0,0.0,68,0.00,CLR,,0.00,WeatherDisplay:10.37,2013-11-30 06:42:00,
2013-11-30 01:47:00,23.9,14.9,30.64,WNW,292,0.0,0.0,68,0.00,CLR,,0.00,WeatherDisplay:10.37,2013-11-30 06:47:00,
2013-11-30 01:52:00,23.7,14.7,30.64,NW,315,0.0,0.0,68,0.00,CLR,,0.00,WeatherDisplay:10.37,2013-11-30 06:52:00,
2013-11-30 01:57:00,23.7,14.7,30.64,WNW,292,0.0,0.0,68,0.00,CLR,,0.00,WeatherDisplay:10.37,2013-11-30 06:57:00,
2013-11-30 02:02:00,23.5,14.5,30.64,West,270,0.0,0.0,68,0.00,CLR,,0.00,WeatherDisplay:10.37,2013-11-30 07:02:00,
2013-11-30 02:07:00,23.5,14.5,30.64,WNW,292,0.0,0.0,68,0.00,CLR,,0.00,WeatherDisplay:10.37,2013-11-30 07:07:00,
2013-11-30 02:12:00,23.4,14.4,30.64,WNW,292,0.0,0.0,68,0.00,CLR,,0.00,WeatherDisplay:10.37,2013-11-30 07:12:00,
2013-11-30 02:17:00,23.4,14.4,30.64,WSW,248,0.0,0.0,68,0.00,CLR,,0.00,WeatherDisplay:10.37,2013-11-30 07:17:00,
2013-11-30 02:22:00,23.4,14.4,30.64,WSW,248,0.5,0.5,68,0.00,CLR,,0.00,WeatherDisplay:10.37,2013-11-30 07:22:00,
2013-11-30 02:27:00,23.4,14.4,30.64,West,270,0.0,0.0,68,0.00,CLR,,0.00,WeatherDisplay:10.37,2013-11-30 07:27:00,
2013-11-30 02:32:00,23.4,14.4,30.64,West,270,0.2,0.2,68,0.00,CLR,,0.00,WeatherDisplay:10.37,2013-11-30 07:32:00,
2013-11-30 02:37:00,23.2,14.2,30.64,WNW,292,0.0,0.0,68,0.00,CLR,,0.00,WeatherDisplay:10.37,2013-11-30 07:37:00,
2013-11-30 02:42:00,23.2,14.2,30.64,West,270,0.0,0.0,68,0.00,CLR,,0.00,WeatherDisplay:10.37,2013-11-30 07:42:00,
2013-11-30 02:47:00,23.0,14.3,30.64,WSW,248,0.0,0.0,69,0.00,CLR,,0.00,WeatherDisplay:10.37,2013-11-30 07:47:00,
2013-11-30 02:52:00,23.0,14.3,30.64,West,270,0.0,0.0,69,0.00,CLR,,0.00,WeatherDisplay:10.37,2013-11-30 07:52:00,
2013-11-30 02:57:00,22.8,13.8,30.64,West,270,0.0,0.0,68,0.00,CLR,,0.00,WeatherDisplay:10.37,2013-11-30 07:57:00,
2013-11-30 03:02:00,22.8,13.8,30.64,SW,225,0.0,0.0,68,0.00,CLR,,0.00,WeatherDisplay:10.37,2013-11-30 08:02:00,
2013-11-30 03:07:00,22.8,14.2,30.64,SW,225,0.0,0.0,69,0.00,CLR,,0.00,WeatherDisplay:10.37,2013-11-30 08:07:00,
2013-11-30 03:12:00,22.8,14.2,30.64,WSW,248,0.0,0.0,69,0.00,CLR,,0.00,WeatherDisplay:10.37,2013-11-30 08:12:00,
2013-11-30 03:17:00,22.6,14.0,30.64,WSW,248,0.0,0.0,69,0.00,CLR,,0.00,WeatherDisplay:10.37,2013-11-30 08:17:00,
2013-11-30 03:22:00,22.5,13.8,30.64,WSW,248,0.0,0.0,69,0.00,CLR,,0.00,WeatherDisplay:10.37,2013-11-30 08:22:00,
2013-11-30 03:27:00,22.5,13.8,30.64,WNW,292,0.0,0.0,69,0.00,CLR,,0.00,WeatherDisplay:10.37,2013-11-30 08:27:00,
2013-11-30 03:32:00,22.5,13.8,30.63,NW,315,0.0,0.0,69,0.00,CLR,,0.00,WeatherDisplay:10.37,2013-11-30 08:32:00,
2013-11-30 03:37:00,22.5,14.1,30.64,NW,315,0.0,0.0,70,0.00,CLR,,0.00,WeatherDisplay:10.37,2013-11-30 08:37:00,
2013-11-30 03:42:00,22.3,14.0,30.64,WNW,292,0.0,0.0,70,0.00,CLR,,0.00,WeatherDisplay:10.37,2013-11-30 08:42:00,
2013-11-30 03:47:00,22.3,14.0,30.64,WNW,292,0.2,0.2,70,0.00,CLR,,0.00,WeatherDisplay:10.37,2013-11-30 08:47:00,
2013-11-30 03:52:00,22.3,14.0,30.64,NW,315,0.2,0.2,70,0.00,CLR,,0.00,WeatherDisplay:10.37,2013-11-30 08:52:00,
2013-11-30 03:57:00,22.5,14.5,30.64,WNW,292,0.0,0.0,71,0.00,CLR,,0.00,WeatherDisplay:10.37,2013-11-30 08:57:00,
2013-11-30 04:02:00,22.5,14.5,30.64,WNW,292,0.0,0.0,71,0.00,CLR,,0.00,WeatherDisplay:10.37,2013-11-30 09:02:00,
2013-11-30 04:07:00,22.6,14.6,30.64,WNW,292,0.0,0.0,71,0.00,CLR,,0.00,WeatherDisplay:10.37,2013-11-30 09:07:00,
2013-11-30 04:12:00,22.6,14.6,30.64,WNW,292,0.0,0.0,71,0.00,CLR,,0.00,WeatherDisplay:10.37,2013-11-30 09:12:00,
2013-11-30 04:17:00,22.6,14.6,30.64,WNW,292,0.0,0.0,71,0.00,CLR,,0.00,WeatherDisplay:10.37,2013-11-30 09:17:00,
2013-11-30 04:22:00,22.8,15.1,30.64,NW,315,0.0,0.0,72,0.00,CLR,,0.00,WeatherDisplay:10.37,2013-11-30 09:22:00,
2013-11-30 04:27:00,22.8,15.1,30.64,NW,315,0.9,0.0,72,0.00,CLR,,0.00,WeatherDisplay:10.37,2013-11-30 09:27:00,
2013-11-30 04:32:00,23.0,15.3,30.64,NW,315,0.5,0.5,72,0.00,CLR,,0.00,WeatherDisplay:10.37,2013-11-30 09:32:00,
2013-11-30 04:37:00,22.8,15.1,30.64,WNW,292,0.0,0.0,72,0.00,CLR,,0.00,WeatherDisplay:10.37,2013-11-30 09:37:00,
2013-11-30 04:42:00,22.8,15.1,30.64,NW,315,0.9,1.2,72,0.00,CLR,,0.00,WeatherDisplay:10.37,2013-11-30 09:42:00,
2013-11-30 04:47:00,22.6,15.0,30.64,NW,315,0.0,0.0,72,0.00,CLR,,0.00,WeatherDisplay:10.37,2013-11-30 09:47:00,
2013-11-30 04:52:00,22.6,15.0,30.64,WSW,248,0.2,0.0,72,0.00,CLR,,0.00,WeatherDisplay:10.37,2013-11-30 09:52:00,
2013-11-30 04:57:00,22.6,15.0,30.65,SW,225,0.0,0.0,72,0.00,CLR,,0.00,WeatherDisplay:10.37,2013-11-30 09:57:00,
2013-11-30 05:02:00,22.6,15.0,30.65,West,270,0.0,0.0,72,0.00,CLR,,0.00,WeatherDisplay:10.37,2013-11-30 10:02:00,
2013-11-30 05:07:00,22.6,15.0,30.65,NNW,338,0.5,0.5,72,0.00,CLR,,0.00,WeatherDisplay:10.37,2013-11-30 10:07:00,
2013-11-30 05:12:00,22.5,14.8,30.65,North,0,0.0,0.0,72,0.00,CLR,,0.00,WeatherDisplay:10.37,2013-11-30 10:12:00,
2013-11-30 05:17:00,22.3,14.9,30.65,North,0,0.0,0.0,73,0.00,CLR,,0.00,WeatherDisplay:10.37,2013-11-30 10:17:00,
2013-11-30 05:22:00,22.3,14.9,30.65,NNW,338,0.0,0.0,73,0.00,CLR,,0.00,WeatherDisplay:10.37,2013-11-30 10:22:00,
2013-11-30 05:27:00,22.3,14.9,30.65,SW,225,0.0,0.0,73,0.00,CLR,,0.00,WeatherDisplay:10.37,2013-11-30 10:27:00,
2013-11-30 05:32:00,22.1,14.8,30.65,SW,225,0.0,0.0,73,0.00,CLR,,0.00,WeatherDisplay:10.37,2013-11-30 10:32:00,
2013-11-30 05:37:00,22.1,14.8,30.65,SW,225,0.0,0.0,73,0.00,CLR,,0.00,WeatherDisplay:10.37,2013-11-30 10:37:00,
2013-11-30 05:42:00,22.1,14.8,30.65,SW,225,0.0,0.0,73,0.00,CLR,,0.00,WeatherDisplay:10.37,2013-11-30 10:42:00,
2013-11-30 05:47:00,21.9,14.6,30.66,SW,225,0.0,0.0,73,0.00,CLR,,0.00,WeatherDisplay:10.37,2013-11-30 10:47:00,
2013-11-30 05:52:00,21.9,14.9,30.66,SW,225,0.0,0.0,74,0.00,CLR,,0.00,WeatherDisplay:10.37,2013-11-30 10:52:00,
2013-11-30 05:57:00,21.7,14.7,30.66,SW,225,0.0,0.0,74,0.00,CLR,,0.00,WeatherDisplay:10.37,2013-11-30 10:57:00,
2013-11-30 06:02:00,21.6,14.6,30.66,SW,225,0.0,0.0,74,0.00,CLR,,0.00,WeatherDisplay:10.37,2013-11-30 11:02:00,
2013-11-30 06:07:00,21.4,14.4,30.66,SW,225,0.0,0.0,74,0.00,CLR,,0.00,WeatherDisplay:10.37,2013-11-30 11:07:00,
2013-11-30 06:12:00,21.2,14.2,30.66,SW,225,0.0,0.0,74,0.00,CLR,,0.00,WeatherDisplay:10.37,2013-11-30 11:12:00,
2013-11-30 06:17:00,21.0,14.3,30.66,SW,225,0.0,0.0,75,0.00,CLR,,0.00,WeatherDisplay:10.37,2013-11-30 11:17:00,
2013-11-30 06:22:00,20.8,14.2,30.66,SW,225,0.0,0.0,75,0.00,CLR,,0.00,WeatherDisplay:10.37,2013-11-30 11:22:00,
2013-11-30 06:27:00,20.8,13.9,30.67,SW,225,0.0,0.0,74,0.00,CLR,,0.00,WeatherDisplay:10.37,2013-11-30 11:27:00,
2013-11-30 06:32:00,20.8,13.9,30.67,SW,225,0.0,0.0,74,0.00,CLR,,0.00,WeatherDisplay:10.37,2013-11-30 11:32:00,
2013-11-30 06:37:00,20.7,13.7,30.67,NW,315,0.0,0.0,74,0.00,CLR,,0.00,WeatherDisplay:10.37,2013-11-30 11:37:00,
2013-11-30 06:42:00,20.7,13.7,30.67,NW,315,0.0,0.0,74,0.00,CLR,,0.00,WeatherDisplay:10.37,2013-11-30 11:42:00,
2013-11-30 06:47:00,20.5,13.8,30.67,NW,315,0.0,0.0,75,0.00,CLR,,0.00,WeatherDisplay:10.37,2013-11-30 11:47:00,
2013-11-30 06:52:00,20.7,14.0,30.67,NW,315,0.0,0.0,75,0.00,CLR,,0.00,WeatherDisplay:10.37,2013-11-30 11:52:00,
2013-11-30 06:57:00,20.7,14.0,30.67,NW,315,0.0,0.0,75,0.00,CLR,,0.00,WeatherDisplay:10.37,2013-11-30 11:57:00,
2013-11-30 07:02:00,20.7,14.0,30.67,NW,315,0.0,0.0,75,0.00,CLR,,0.00,WeatherDisplay:10.37,2013-11-30 12:02:00,
2013-11-30 07:07:00,20.7,14.0,30.67,NW,315,0.0,0.0,75,0.00,CLR,,0.00,WeatherDisplay:10.37,2013-11-30 12:07:00,
2013-11-30 07:12:00,20.7,14.0,30.67,NW,315,0.0,0.0,75,0.00,CLR,,0.00,WeatherDisplay:10.37,2013-11-30 12:12:00,
2013-11-30 07:17:00,20.8,14.5,30.68,NW,315,0.0,0.0,76,0.00,CLR,,0.00,WeatherDisplay:10.37,2013-11-30 12:17:00,
2013-11-30 07:22:00,20.8,14.5,30.68,NW,315,0.0,0.0,76,0.00,CLR,,0.00,WeatherDisplay:10.37,2013-11-30 12:22:00,
2013-11-30 07:27:00,20.8,14.5,30.68,NW,315,0.0,0.0,76,0.00,CLR,,0.00,WeatherDisplay:10.37,2013-11-30 12:27:00,
2013-11-30 07:32:00,21.0,14.6,30.68,NW,315,0.2,0.2,76,0.00,CLR,,0.00,WeatherDisplay:10.37,2013-11-30 12:32:00,
2013-11-30 07:37:00,21.2,14.8,30.68,NW,315,0.2,0.2,76,0.00,CLR,,0.00,WeatherDisplay:10.37,2013-11-30 12:37:00,
2013-11-30 07:42:00,21.4,15.3,30.68,NW,315,0.5,0.5,77,0.00,CLR,,0.00,WeatherDisplay:10.37,2013-11-30 12:42:00,
2013-11-30 07:47:00,21.6,15.5,30.68,NW,315,0.0,0.0,77,0.00,CLR,,0.00,WeatherDisplay:10.37,2013-11-30 12:47:00,
2013-11-30 07:52:00,21.9,15.8,30.68,NW,315,0.0,0.0,77,0.00,CLR,,0.00,WeatherDisplay:10.37,2013-11-30 12:52:00,
2013-11-30 07:57:00,22.3,16.2,30.68,NNW,338,0.0,0.0,77,0.00,CLR,,0.00,WeatherDisplay:10.37,2013-11-30 12:57:00,
2013-11-30 08:02:00,22.6,16.5,30.68,NNW,338,0.0,0.0,77,0.00,CLR,,0.00,WeatherDisplay:10.37,2013-11-30 13:02:00,
2013-11-30 08:07:00,23.0,16.9,30.68,WSW,248,0.0,0.0,77,0.00,CLR,,0.00,WeatherDisplay:10.37,2013-11-30 13:07:00,
2013-11-30 08:12:00,23.4,17.2,30.69,SW,225,0.0,0.0,77,0.00,CLR,,0.00,WeatherDisplay:10.37,2013-11-30 13:12:00,
2013-11-30 08:17:00,23.9,18.0,30.69,SW,225,0.0,0.0,78,0.00,CLR,,0.00,WeatherDisplay:10.37,2013-11-30 13:17:00,
2013-11-30 08:22:00,24.3,18.4,30.69,SW,225,0.0,0.0,78,0.00,CLR,,0.00,WeatherDisplay:10.37,2013-11-30 13:22:00,
2013-11-30 08:27:00,24.8,18.9,30.69,NNW,338,0.2,0.2,78,0.00,CLR,,0.00,WeatherDisplay:10.37,2013-11-30 13:27:00,
2013-11-30 08:32:00,25.2,19.0,30.69,NNW,338,0.0,0.0,77,0.00,CLR,,0.00,WeatherDisplay:10.37,2013-11-30 13:32:00,
2013-11-30 08:37:00,25.7,19.5,30.69,NNW,338,0.0,0.0,77,0.00,CLR,,0.00,WeatherDisplay:10.37,2013-11-30 13:37:00,
2013-11-30 08:42:00,26.2,20.0,30.68,NNW,338,0.0,0.0,77,0.00,CLR,,0.00,WeatherDisplay:10.37,2013-11-30 13:42:00,
2013-11-30 08:47:00,26.8,20.5,30.68,ENE,68,0.0,0.0,77,0.00,CLR,,0.00,WeatherDisplay:10.37,2013-11-30 13:47:00,
2013-11-30 08:52:00,27.3,21.1,30.68,ENE,68,0.2,2.3,77,0.00,CLR,,0.00,WeatherDisplay:10.37,2013-11-30 13:52:00,
2013-11-30 08:57:00,28.0,21.1,30.68,ENE,68,1.4,2.3,75,0.00,CLR,,0.00,WeatherDisplay:10.37,2013-11-30 13:57:00,
2013-11-30 09:02:00,28.6,22.0,30.68,East,90,1.2,2.3,76,0.00,CLR,,0.00,WeatherDisplay:10.37,2013-11-30 14:02:00,
2013-11-30 09:07:00,29.3,22.4,30.68,ESE,112,0.5,2.3,75,0.00,CLR,,0.00,WeatherDisplay:10.37,2013-11-30 14:07:00,
2013-11-30 09:12:00,29.8,22.2,30.68,East,90,2.4,3.5,73,0.00,CLR,,0.00,WeatherDisplay:10.37,2013-11-30 14:12:00,
2013-11-30 09:17:00,30.6,22.3,30.68,NNE,22,5.4,5.4,71,0.00,CLR,,0.00,WeatherDisplay:10.37,2013-11-30 14:17:00,
2013-11-30 09:22:00,30.9,22.3,30.68,ENE,68,2.2,3.5,70,0.00,CLR,,0.00,WeatherDisplay:10.37,2013-11-30 14:22:00,
2013-11-30 09:27:00,31.5,21.8,30.68,NNE,22,3.1,3.5,67,0.00,CLR,,0.00,WeatherDisplay:10.37,2013-11-30 14:27:00,
2013-11-30 09:32:00,32.0,21.9,30.68,East,90,1.8,3.5,66,0.00,CLR,,0.00,WeatherDisplay:10.37,2013-11-30 14:32:00,
2013-11-30 09:37:00,32.2,21.7,30.68,NNW,338,1.4,4.6,65,0.00,CLR,,0.00,WeatherDisplay:10.37,2013-11-30 14:37:00,
2013-11-30 09:42:00,32.5,21.7,30.68,ENE,68,1.8,3.5,64,0.00,CLR,,0.00,WeatherDisplay:10.37,2013-11-30 14:42:00,
2013-11-30 09:47:00,32.7,21.1,30.68,East,90,3.3,4.6,62,0.00,CLR,,0.00,WeatherDisplay:10.37,2013-11-30 14:47:00,
2013-11-30 09:52:00,33.1,22.2,30.68,NE,45,2.6,2.6,64,0.00,CLR,,0.00,WeatherDisplay:10.37,2013-11-30 14:52:00,
2013-11-30 09:57:00,33.3,22.4,30.68,SSW,202,0.5,1.2,64,0.00,CLR,,0.00,WeatherDisplay:10.37,2013-11-30 14:57:00,
2013-11-30 10:02:00,33.4,22.6,30.68,NE,45,2.0,4.6,64,0.00,CLR,,0.00,WeatherDisplay:10.37,2013-11-30 15:02:00,
2013-11-30 10:07:00,33.6,22.4,30.68,ENE,68,0.5,3.5,63,0.00,CLR,,0.00,WeatherDisplay:10.37,2013-11-30 15:07:00,
2013-11-30 10:12:00,33.8,22.5,30.67,ENE,68,2.6,2.6,63,0.00,CLR,,0.00,WeatherDisplay:10.37,2013-11-30 15:12:00,
2013-11-30 10:17:00,34.0,22.3,30.67,SSE,158,0.2,2.3,62,0.00,CLR,,0.00,WeatherDisplay:10.37,2013-11-30 15:17:00,
2013-11-30 10:22:00,34.2,21.7,30.67,NNE,22,3.8,4.6,60,0.00,CLR,,0.00,WeatherDisplay:10.37,2013-11-30 15:22:00,
2013-11-30 10:27:00,34.5,22.1,30.67,NNE,22,4.5,4.6,60,0.00,CLR,,0.00,WeatherDisplay:10.37,2013-11-30 15:27:00,
2013-11-30 10:32:00,35.1,23.0,30.66,ENE,68,3.3,6.9,61,0.00,CLR,,0.00,WeatherDisplay:10.37,2013-11-30 15:32:00,
2013-11-30 10:37:00,35.2,22.7,30.66,NNE,22,2.2,3.5,60,0.00,CLR,,0.00,WeatherDisplay:10.37,2013-11-30 15:37:00,
2013-11-30 10:42:00,35.4,22.1,30.66,North,0,3.3,3.5,58,0.00,CLR,,0.00,WeatherDisplay:10.37,2013-11-30 15:42:00,
2013-11-30 10:47:00,35.4,22.5,30.66,SSE,158,1.8,1.8,59,0.00,CLR,,0.00,WeatherDisplay:10.37,2013-11-30 15:47:00,
2013-11-30 10:52:00,35.6,22.7,30.66,NNW,338,3.1,4.6,59,0.00,CLR,,0.00,WeatherDisplay:10.37,2013-11-30 15:52:00,
2013-11-30 10:57:00,35.6,21.9,30.65,ENE,68,1.8,4.6,57,0.00,CLR,,0.00,WeatherDisplay:10.37,2013-11-30 15:57:00,
2013-11-30 11:02:00,36.0,23.0,30.65,ESE,112,1.2,1.2,59,0.00,CLR,,0.00,WeatherDisplay:10.37,2013-11-30 16:02:00,
2013-11-30 11:07:00,36.0,22.6,30.65,ENE,68,1.8,4.6,58,0.00,CLR,,0.00,WeatherDisplay:10.37,2013-11-30 16:07:00,
2013-11-30 11:12:00,36.3,22.5,30.65,NW,315,3.3,4.6,57,0.00,CLR,,0.00,WeatherDisplay:10.37,2013-11-30 16:12:00,
2013-11-30 11:17:00,36.3,22.9,30.64,ENE,68,0.9,3.5,58,0.00,CLR,,0.00,WeatherDisplay:10.37,2013-11-30 16:17:00,
2013-11-30 11:22:00,36.7,22.9,30.64,NNE,22,2.9,2.9,57,0.00,CLR,,0.00,WeatherDisplay:10.37,2013-11-30 16:22:00,
2013-11-30 11:27:00,37.0,23.2,30.64,North,0,1.6,1.6,57,0.00,CLR,,0.00,WeatherDisplay:10.37,2013-11-30 16:27:00,
2013-11-30 11:32:00,36.9,22.6,30.64,ENE,68,0.5,2.3,56,0.00,CLR,,0.00,WeatherDisplay:10.37,2013-11-30 16:32:00,
2013-11-30 11:37:00,37.0,23.2,30.64,East,90,0.9,2.3,57,0.00,CLR,,0.00,WeatherDisplay:10.37,2013-11-30 16:37:00,
2013-11-30 11:42:00,37.4,23.5,30.63,NE,45,0.7,2.3,57,0.00,CLR,,0.00,WeatherDisplay:10.37,2013-11-30 16:42:00,
2013-11-30 11:47:00,37.8,24.7,30.63,SE,135,4.3,4.6,59,0.00,CLR,,0.00,WeatherDisplay:10.37,2013-11-30 16:47:00,
2013-11-30 11:52:00,38.1,23.8,30.63,East,90,1.2,3.5,56,0.00,CLR,,0.00,WeatherDisplay:10.37,2013-11-30 16:52:00,
2013-11-30 11:57:00,38.5,25.0,30.63,SSW,202,2.6,4.6,58,0.00,CLR,,0.00,WeatherDisplay:10.37,2013-11-30 16:57:00,
2013-11-30 12:02:00,38.8,24.5,30.62,SE,135,2.4,3.5,56,0.00,CLR,,0.00,WeatherDisplay:10.37,2013-11-30 17:02:00,
2013-11-30 12:07:00,39.0,25.1,30.62,SSE,158,3.1,4.6,57,0.00,CLR,,0.00,WeatherDisplay:10.37,2013-11-30 17:07:00,
2013-11-30 12:12:00,39.4,25.4,30.62,SSW,202,4.0,4.6,57,0.00,CLR,,0.00,WeatherDisplay:10.37,2013-11-30 17:12:00,
2013-11-30 12:17:00,39.7,24.4,30.62,ENE,68,3.6,5.8,54,0.00,CLR,,0.00,WeatherDisplay:10.37,2013-11-30 17:17:00,
2013-11-30 12:22:00,39.7,24.4,30.62,SE,135,4.0,8.1,54,0.00,CLR,,0.00,WeatherDisplay:10.37,2013-11-30 17:22:00,
2013-11-30 12:27:00,40.1,25.2,30.62,SW,225,0.9,1.2,55,0.00,CLR,,0.00,WeatherDisplay:10.37,2013-11-30 17:27:00,
2013-11-30 12:32:00,40.3,24.9,30.61,South,180,4.0,4.6,54,0.00,CLR,,0.00,WeatherDisplay:10.37,2013-11-30 17:32:00,
2013-11-30 12:37:00,40.3,24.9,30.61,SSE,158,5.9,5.9,54,0.00,CLR,,0.00,WeatherDisplay:10.37,2013-11-30 17:37:00,
2013-11-30 12:42:00,40.6,24.8,30.61,East,90,0.7,2.3,53,0.00,CLR,,0.00,WeatherDisplay:10.37,2013-11-30 17:42:00,
2013-11-30 12:47:00,40.6,25.3,30.61,SE,135,1.8,4.6,54,0.00,CLR,,0.00,WeatherDisplay:10.37,2013-11-30 17:47:00,
2013-11-30 12:52:00,40.6,24.4,30.60,East,90,3.3,4.6,52,0.00,CLR,,0.00,WeatherDisplay:10.37,2013-11-30 17:52:00,
2013-11-30 12:57:00,40.5,23.7,30.60,SE,135,3.8,3.8,51,0.00,CLR,,0.00,WeatherDisplay:10.37,2013-11-30 17:57:00,
2013-11-30 13:02:00,39.9,23.7,30.60,SE,135,5.2,5.2,52,0.00,CLR,,0.00,WeatherDisplay:10.37,2013-11-30 18:02:00,
2013-11-30 13:07:00,39.7,23.5,30.60,SSE,158,3.3,3.5,52,0.00,CLR,,0.00,WeatherDisplay:10.37,2013-11-30 18:07:00,
2013-11-30 13:12:00,39.7,23.5,30.60,SE,135,5.4,5.4,52,0.00,CLR,,0.00,WeatherDisplay:10.37,2013-11-30 18:12:00,
2013-11-30 13:17:00,40.1,23.9,30.60,South,180,3.3,4.6,52,0.00,CLR,,0.00,WeatherDisplay:10.37,2013-11-30 18:17:00,
2013-11-30 13:22:00,40.3,24.0,30.60,ESE,112,5.4,5.8,52,0.00,CLR,,0.00,WeatherDisplay:10.37,2013-11-30 18:22:00,
2013-11-30 13:27:00,40.1,23.9,30.60,South,180,1.8,3.5,52,0.00,CLR,,0.00,WeatherDisplay:10.37,2013-11-30 18:27:00,
2013-11-30 13:32:00,39.9,23.2,30.59,South,180,3.8,4.6,51,0.00,CLR,,0.00,WeatherDisplay:10.37,2013-11-30 18:32:00,
2013-11-30 13:37:00,39.6,23.4,30.59,South,180,1.2,1.2,52,0.00,CLR,,0.00,WeatherDisplay:10.37,2013-11-30 18:37:00,
2013-11-30 13:42:00,39.4,23.2,30.59,SSE,158,4.3,5.8,52,0.00,CLR,,0.00,WeatherDisplay:10.37,2013-11-30 18:42:00,
2013-11-30 13:47:00,39.2,22.6,30.59,ESE,112,1.4,2.3,51,0.00,CLR,,0.00,WeatherDisplay:10.37,2013-11-30 18:47:00,
2013-11-30 13:52:00,38.8,21.8,30.58,SW,225,0.7,1.2,50,0.00,CLR,,0.00,WeatherDisplay:10.37,2013-11-30 18:52:00,
2013-11-30 13:57:00,38.8,23.6,30.59,South,180,1.6,4.6,54,0.00,CLR,,0.00,WeatherDisplay:10.37,2013-11-30 18:57:00,
2013-11-30 14:02:00,38.8,24.0,30.59,SE,135,2.4,2.4,55,0.00,CLR,,0.00,WeatherDisplay:10.37,2013-11-30 19:02:00,
2013-11-30 14:07:00,38.8,24.0,30.59,SSE,158,2.6,3.5,55,0.00,CLR,,0.00,WeatherDisplay:10.37,2013-11-30 19:07:00,
2013-11-30 14:12:00,38.7,24.3,30.58,SSE,158,2.0,2.3,56,0.00,CLR,,0.00,WeatherDisplay:10.37,2013-11-30 19:12:00,
2013-11-30 14:17:00,38.5,23.7,30.59,ESE,112,3.1,3.5,55,0.00,CLR,,0.00,WeatherDisplay:10.37,2013-11-30 19:17:00,
2013-11-30 14:22:00,37.9,23.6,30.58,South,180,2.2,3.5,56,0.00,CLR,,0.00,WeatherDisplay:10.37,2013-11-30 19:22:00,
2013-11-30 14:27:00,37.8,24.3,30.58,SE,135,1.2,1.2,58,0.00,CLR,,0.00,WeatherDisplay:10.37,2013-11-30 19:27:00,
2013-11-30 14:32:00,37.6,24.1,30.58,SSE,158,2.4,4.6,58,0.00,CLR,,0.00,WeatherDisplay:10.37,2013-11-30 19:32:00,
2013-11-30 14:37:00,37.4,24.4,30.58,SSE,158,3.1,3.1,59,0.00,CLR,,0.00,WeatherDisplay:10.37,2013-11-30 19:37:00,
2013-11-30 14:42:00,37.4,24.8,30.57,SE,135,1.2,1.2,60,0.00,CLR,,0.00,WeatherDisplay:10.37,2013-11-30 19:42:00,
2013-11-30 14:47:00,37.4,24.8,30.57,SSE,158,0.9,1.2,60,0.00,CLR,,0.00,WeatherDisplay:10.37,2013-11-30 19:47:00,
2013-11-30 14:52:00,37.4,24.8,30.57,SSE,158,2.6,3.5,60,0.00,CLR,,0.00,WeatherDisplay:10.37,2013-11-30 19:52:00,
2013-11-30 14:57:00,37.0,24.4,30.57,SSE,158,1.8,4.6,60,0.00,CLR,,0.00,WeatherDisplay:10.37,2013-11-30 19:57:00,
2013-11-30 15:02:00,36.5,23.9,30.57,SSE,158,2.4,2.4,60,0.00,CLR,,0.00,WeatherDisplay:10.37,2013-11-30 20:02:00,
2013-11-30 15:07:00,36.3,23.8,30.56,SSE,158,1.8,2.3,60,0.00,CLR,,0.00,WeatherDisplay:10.37,2013-11-30 20:07:00,
2013-11-30 15:12:00,36.1,23.6,30.56,SSE,158,0.0,1.2,60,0.00,CLR,,0.00,WeatherDisplay:10.37,2013-11-30 20:12:00,
2013-11-30 15:17:00,36.0,23.4,30.56,South,180,0.5,1.2,60,0.00,CLR,,0.00,WeatherDisplay:10.37,2013-11-30 20:17:00,
2013-11-30 15:22:00,35.8,23.2,30.56,SSE,158,2.2,2.3,60,0.00,CLR,,0.00,WeatherDisplay:10.37,2013-11-30 20:22:00,
2013-11-30 15:27:00,35.6,23.1,30.56,ENE,68,0.9,2.3,60,0.00,CLR,,0.00,WeatherDisplay:10.37,2013-11-30 20:27:00,
2013-11-30 15:32:00,35.4,22.9,30.56,East,90,1.2,2.3,60,0.00,CLR,,0.00,WeatherDisplay:10.37,2013-11-30 20:32:00,
2013-11-30 15:37:00,35.1,22.6,30.55,East,90,0.2,2.3,60,0.00,CLR,,0.00,WeatherDisplay:10.37,2013-11-30 20:37:00,
2013-11-30 15:42:00,34.9,22.4,30.55,SSE,158,0.5,1.2,60,0.00,CLR,,0.00,WeatherDisplay:10.37,2013-11-30 20:42:00,
2013-11-30 15:47:00,34.9,22.4,30.55,SSE,158,0.7,1.2,60,0.00,CLR,,0.00,WeatherDisplay:10.37,2013-11-30 20:47:00,
2013-11-30 15:52:00,34.9,22.8,30.55,ESE,112,0.0,0.0,61,0.00,CLR,,0.00,WeatherDisplay:10.37,2013-11-30 20:52:00,
2013-11-30 15:57:00,34.7,22.6,30.55,ESE,112,0.0,0.0,61,0.00,CLR,,0.00,WeatherDisplay:10.37,2013-11-30 20:57:00,
2013-11-30 16:02:00,34.5,22.4,30.55,ESE,112,0.0,0.0,61,0.00,CLR,,0.00,WeatherDisplay:10.37,2013-11-30 21:02:00,
2013-11-30 16:07:00,34.2,22.5,30.55,ESE,112,0.0,0.0,62,0.00,CLR,,0.00,WeatherDisplay:10.37,2013-11-30 21:07:00,
2013-11-30 16:12:00,33.6,22.0,30.55,ESE,112,0.0,0.0,62,0.00,CLR,,0.00,WeatherDisplay:10.37,2013-11-30 21:12:00,
2013-11-30 16:17:00,33.3,21.6,30.55,ESE,112,0.0,0.0,62,0.00,CLR,,0.00,WeatherDisplay:10.37,2013-11-30 21:17:00,
2013-11-30 16:22:00,32.9,21.3,30.55,ESE,112,0.0,0.0,62,0.00,CLR,,0.00,WeatherDisplay:10.37,2013-11-30 21:22:00,
2013-11-30 16:27:00,32.7,21.5,30.55,ESE,112,0.0,0.0,63,0.00,CLR,,0.00,WeatherDisplay:10.37,2013-11-30 21:27:00,
2013-11-30 16:32:00,32.4,21.2,30.55,ESE,112,0.0,0.0,63,0.00,CLR,,0.00,WeatherDisplay:10.37,2013-11-30 21:32:00,
2013-11-30 16:37:00,32.0,21.2,30.55,ESE,112,0.0,0.0,64,0.00,CLR,,0.00,WeatherDisplay:10.37,2013-11-30 21:37:00,
2013-11-30 16:42:00,31.5,20.7,30.55,North,0,0.0,0.0,64,0.00,CLR,,0.00,WeatherDisplay:10.37,2013-11-30 21:42:00,
2013-11-30 16:47:00,31.3,20.9,30.55,North,0,0.0,0.0,65,0.00,CLR,,0.00,WeatherDisplay:10.37,2013-11-30 21:47:00,
2013-11-30 16:52:00,31.1,20.7,30.55,North,0,0.0,0.0,65,0.00,CLR,,0.00,WeatherDisplay:10.37,2013-11-30 21:52:00,
2013-11-30 16:57:00,30.9,20.9,30.54,North,0,0.0,0.0,66,0.00,CLR,,0.00,WeatherDisplay:10.37,2013-11-30 21:57:00,
2013-11-30 17:02:00,30.9,20.9,30.54,WNW,292,0.0,0.0,66,0.00,CLR,,0.00,WeatherDisplay:10.37,2013-11-30 22:02:00,
2013-11-30 17:07:00,30.7,20.7,30.54,WNW,292,0.0,0.0,66,0.00,CLR,,0.00,WeatherDisplay:10.37,2013-11-30 22:07:00,
2013-11-30 17:12:00,30.6,20.5,30.54,WNW,292,0.0,0.0,66,0.00,CLR,,0.00,WeatherDisplay:10.37,2013-11-30 22:12:00,
2013-11-30 17:17:00,30.4,20.4,30.54,North,0,0.0,0.0,66,0.00,CLR,,0.00,WeatherDisplay:10.37,2013-11-30 22:17:00,
2013-11-30 17:22:00,30.2,20.2,30.54,North,0,0.0,0.0,66,0.00,CLR,,0.00,WeatherDisplay:10.37,2013-11-30 22:22:00,
2013-11-30 17:27:00,30.2,20.6,30.54,North,0,0.0,0.0,67,0.00,CLR,,0.00,WeatherDisplay:10.37,2013-11-30 22:27:00,
2013-11-30 17:32:00,30.0,20.4,30.54,North,0,0.0,0.0,67,0.00,CLR,,0.00,WeatherDisplay:10.37,2013-11-30 22:32:00,
2013-11-30 17:37:00,29.8,20.2,30.54,NNW,338,0.5,0.5,67,0.00,CLR,,0.00,WeatherDisplay:10.37,2013-11-30 22:37:00,
2013-11-30 17:42:00,29.8,20.2,30.54,NNW,338,0.0,0.0,67,0.00,CLR,,0.00,WeatherDisplay:10.37,2013-11-30 22:42:00,
2013-11-30 17:47:00,29.8,20.6,30.53,NNW,338,0.0,0.0,68,0.00,CLR,,0.00,WeatherDisplay:10.37,2013-11-30 22:47:00,
2013-11-30 17:52:00,29.8,20.6,30.53,NNE,22,0.0,0.0,68,0.00,CLR,,0.00,WeatherDisplay:10.37,2013-11-30 22:52:00,
2013-11-30 17:57:00,29.7,20.4,30.53,NNW,338,0.5,0.5,68,0.00,CLR,,0.00,WeatherDisplay:10.37,2013-11-30 22:57:00,
2013-11-30 18:02:00,29.5,20.6,30.53,NNW,338,0.0,0.0,69,0.00,CLR,,0.00,WeatherDisplay:10.37,2013-11-30 23:02:00,
2013-11-30 18:07:00,29.5,20.6,30.53,NNE,22,0.0,0.0,69,0.00,CLR,,0.00,WeatherDisplay:10.37,2013-11-30 23:07:00,
2013-11-30 18:12:00,29.5,20.6,30.53,NNE,22,0.0,0.0,69,0.00,CLR,,0.00,WeatherDisplay:10.37,2013-11-30 23:12:00,
2013-11-30 18:17:00,29.5,20.9,30.53,NNE,22,0.0,0.0,70,0.00,CLR,,0.00,WeatherDisplay:10.37,2013-11-30 23:17:00,
2013-11-30 18:22:00,29.5,20.9,30.52,NNE,22,0.0,0.0,70,0.00,CLR,,0.00,WeatherDisplay:10.37,2013-11-30 23:22:00,
2013-11-30 18:27:00,29.5,20.9,30.52,NNE,22,0.0,0.0,70,0.00,CLR,,0.00,WeatherDisplay:10.37,2013-11-30 23:27:00,
2013-11-30 18:32:00,29.5,20.9,30.52,ESE,112,0.7,0.7,70,0.00,CLR,,0.00,WeatherDisplay:10.37,2013-11-30 23:32:00,
2013-11-30 18:37:00,29.3,20.7,30.52,ENE,68,0.0,0.0,70,0.00,CLR,,0.00,WeatherDisplay:10.37,2013-11-30 23:37:00,
2013-11-30 18:42:00,29.3,20.7,30.52,SSE,158,0.0,0.0,70,0.00,CLR,,0.00,WeatherDisplay:10.37,2013-11-30 23:42:00,
2013-11-30 18:47:00,29.3,21.1,30.52,SSE,158,0.0,0.0,71,0.00,CLR,,0.00,WeatherDisplay:10.37,2013-11-30 23:47:00,
2013-11-30 18:52:00,29.3,21.1,30.51,SSE,158,0.7,0.0,71,0.00,CLR,,0.00,WeatherDisplay:10.37,2013-11-30 23:52:00,
2013-11-30 18:57:00,29.3,21.1,30.51,SE,135,0.5,1.2,71,0.00,CLR,,0.00,WeatherDisplay:10.37,2013-11-30 23:57:00,
2013-11-30 19:02:00,29.1,20.9,30.51,SE,135,0.2,0.2,71,0.00,CLR,,0.00,WeatherDisplay:10.37,2013-12-01 00:02:00,
2013-11-30 19:07:00,29.1,20.9,30.51,SE,135,0.0,0.0,71,0.00,CLR,,0.00,WeatherDisplay:10.37,2013-12-01 00:07:00,
2013-11-30 19:12:00,29.1,21.2,30.51,ESE,112,0.0,1.2,72,0.00,CLR,,0.00,WeatherDisplay:10.37,2013-12-01 00:12:00,
2013-11-30 19:17:00,29.1,21.2,30.50,SE,135,1.4,2.3,72,0.00,CLR,,0.00,WeatherDisplay:10.37,2013-12-01 00:17:00,
2013-11-30 19:22:00,29.1,21.2,30.50,SSE,158,1.2,2.3,72,0.00,CLR,,0.00,WeatherDisplay:10.37,2013-12-01 00:22:00,
2013-11-30 19:27:00,29.1,21.2,30.50,SSE,158,1.6,1.6,72,0.00,CLR,,0.00,WeatherDisplay:10.37,2013-12-01 00:27:00,
2013-11-30 19:32:00,29.3,21.7,30.50,SE,135,0.2,1.2,73,0.00,CLR,,0.00,WeatherDisplay:10.37,2013-12-01 00:32:00,
2013-11-30 19:37:00,29.3,21.7,30.49,SSE,158,0.2,1.2,73,0.00,CLR,,0.00,WeatherDisplay:10.37,2013-12-01 00:37:00,
2013-11-30 19:42:00,29.7,22.1,30.49,SSE,158,0.5,2.3,73,0.00,CLR,,0.00,WeatherDisplay:10.37,2013-12-01 00:42:00,
2013-11-30 19:47:00,29.8,22.2,30.49,South,180,0.9,1.2,73,0.00,CLR,,0.00,WeatherDisplay:10.37,2013-12-01 00:47:00,
2013-11-30 19:52:00,29.8,22.2,30.49,SE,135,0.5,3.5,73,0.00,CLR,,0.00,WeatherDisplay:10.37,2013-12-01 00:52:00,
2013-11-30 19:57:00,30.2,22.6,30.49,SSE,158,0.5,2.3,73,0.00,CLR,,0.00,WeatherDisplay:10.37,2013-12-01 00:57:00,
2013-11-30 20:02:00,30.4,22.8,30.48,SE,135,1.2,1.2,73,0.00,CLR,,0.00,WeatherDisplay:10.37,2013-12-01 01:02:00,
2013-11-30 20:07:00,30.7,23.1,30.48,South,180,1.8,2.3,73,0.00,CLR,,0.00,WeatherDisplay:10.37,2013-12-01 01:07:00,
2013-11-30 20:12:00,30.9,23.3,30.48,South,180,0.7,1.2,73,0.00,CLR,,0.00,WeatherDisplay:10.37,2013-12-01 01:12:00,
2013-11-30 20:17:00,31.3,23.6,30.48,SSE,158,0.7,4.6,73,0.00,CLR,,0.00,WeatherDisplay:10.37,2013-12-01 01:17:00,
2013-11-30 20:22:00,31.5,23.8,30.47,SSE,158,1.4,2.3,73,0.00,CLR,,0.00,WeatherDisplay:10.37,2013-12-01 01:22:00,
2013-11-30 20:27:00,31.6,24.0,30.47,SSW,202,2.0,2.3,73,0.00,CLR,,0.00,WeatherDisplay:10.37,2013-12-01 01:27:00,
2013-11-30 20:32:00,32.0,24.3,30.47,SW,225,0.5,1.2,73,0.00,CLR,,0.00,WeatherDisplay:10.37,2013-12-01 01:32:00,
2013-11-30 20:37:00,32.0,24.3,30.47,SSE,158,1.6,1.6,73,0.00,CLR,,0.00,WeatherDisplay:10.37,2013-12-01 01:37:00,
2013-11-30 20:42:00,32.2,24.5,30.47,SE,135,2.0,2.3,73,0.00,CLR,,0.00,WeatherDisplay:10.37,2013-12-01 01:42:00,
2013-11-30 20:43:00,32.2,24.5,30.47,South,180,1.2,3.5,73,0.00,CLR,,0.00,WeatherDisplay:10.37,2013-12-01 01:43:00,
2013-11-30 20:48:00,32.5,24.8,30.47,SSE,158,4.5,4.6,73,0.00,CLR,,0.00,WeatherDisplay:10.37,2013-12-01 01:48:00,
2013-11-30 20:53:00,32.7,25.0,30.47,SSW,202,4.0,4.0,73,0.00,CLR,,0.00,WeatherDisplay:10.37,2013-12-01 01:53:00,
2013-11-30 20:58:00,32.7,24.7,30.46,SE,135,3.3,3.5,72,0.00,CLR,,0.00,WeatherDisplay:10.37,2013-12-01 01:58:00,
2013-11-30 21:03:00,32.9,24.9,30.47,SSE,158,4.7,4.7,72,0.00,CLR,,0.00,WeatherDisplay:10.37,2013-12-01 02:03:00,
2013-11-30 21:08:00,33.1,25.4,30.46,SSE,158,2.4,5.8,73,0.00,CLR,,0.00,WeatherDisplay:10.37,2013-12-01 02:08:00,
2013-11-30 21:13:00,33.4,25.7,30.46,ESE,112,3.3,5.8,73,0.00,CLR,,0.00,WeatherDisplay:10.37,2013-12-01 02:13:00,
2013-11-30 21:18:00,33.4,25.7,30.45,South,180,1.2,1.2,73,0.00,CLR,,0.00,WeatherDisplay:10.37,2013-12-01 02:18:00,
2013-11-30 21:23:00,33.8,25.7,30.45,SSE,158,2.4,4.6,72,0.00,CLR,,0.00,WeatherDisplay:10.37,2013-12-01 02:23:00,
2013-11-30 21:28:00,33.8,25.7,30.45,SSE,158,3.3,3.3,72,0.00,CLR,,0.00,WeatherDisplay:10.37,2013-12-01 02:28:00,
2013-11-30 21:33:00,34.2,26.1,30.45,SSE,158,0.7,4.6,72,0.00,CLR,,0.00,WeatherDisplay:10.37,2013-12-01 02:33:00,
2013-11-30 21:38:00,34.2,26.1,30.45,South,180,1.6,4.6,72,0.00,CLR,,0.00,WeatherDisplay:10.37,2013-12-01 02:38:00,
2013-11-30 21:43:00,34.2,26.1,30.44,SSE,158,3.3,3.5,72,0.00,CLR,,0.00,WeatherDisplay:10.37,2013-12-01 02:43:00,
2013-11-30 21:48:00,34.3,26.6,30.44,South,180,1.6,3.5,73,0.00,CLR,,0.00,WeatherDisplay:10.37,2013-12-01 02:48:00,
2013-11-30 21:53:00,34.5,26.8,30.44,South,180,3.1,4.6,73,0.00,CLR,,0.00,WeatherDisplay:10.37,2013-12-01 02:53:00,
2013-11-30 21:58:00,34.7,26.9,30.44,South,180,2.4,6.9,73,0.00,CLR,,0.00,WeatherDisplay:10.37,2013-12-01 02:58:00,
2013-11-30 22:03:00,34.7,26.9,30.44,SE,135,2.4,5.8,73,0.00,CLR,,0.00,WeatherDisplay:10.37,2013-12-01 03:03:00,
2013-11-30 22:08:00,34.9,27.1,30.43,SSE,158,2.4,4.6,73,0.00,CLR,,0.00,WeatherDisplay:10.37,2013-12-01 03:08:00,
2013-11-30 22:13:00,34.9,27.1,30.43,South,180,4.9,5.8,73,0.00,CLR,,0.00,WeatherDisplay:10.37,2013-12-01 03:13:00,
2013-11-30 22:18:00,34.9,27.1,30.43,SE,135,4.7,5.8,73,0.00,CLR,,0.00,WeatherDisplay:10.37,2013-12-01 03:18:00,
2013-11-30 22:23:00,35.1,27.3,30.43,SSW,202,3.3,4.6,73,0.00,CLR,,0.00,WeatherDisplay:10.37,2013-12-01 03:23:00,
2013-11-30 22:28:00,35.2,27.4,30.43,SSE,158,3.3,3.3,73,0.00,CLR,,0.00,WeatherDisplay:10.37,2013-12-01 03:28:00,
2013-11-30 22:33:00,35.2,27.1,30.42,SE,135,4.0,4.0,72,0.00,CLR,,0.00,WeatherDisplay:10.37,2013-12-01 03:33:00,
2013-11-30 22:38:00,35.2,27.4,30.42,SE,135,1.8,5.8,73,0.00,CLR,,0.00,WeatherDisplay:10.37,2013-12-01 03:38:00,
2013-11-30 22:43:00,35.4,27.6,30.42,South,180,2.6,2.6,73,0.00,CLR,,0.00,WeatherDisplay:10.37,2013-12-01 03:43:00,
2013-11-30 22:48:00,35.4,27.6,30.42,South,180,3.3,5.8,73,0.00,CLR,,0.00,WeatherDisplay:10.37,2013-12-01 03:48:00,
2013-11-30 22:53:00,35.6,27.8,30.42,ESE,112,4.0,6.9,73,0.00,CLR,,0.00,WeatherDisplay:10.37,2013-12-01 03:53:00,
2013-11-30 22:58:00,35.6,27.8,30.42,SSE,158,3.3,6.9,73,0.00,CLR,,0.00,WeatherDisplay:10.37,2013-12-01 03:58:00,
2013-11-30 23:03:00,35.6,27.8,30.42,SE,135,5.6,6.9,73,0.00,CLR,,0.00,WeatherDisplay:10.37,2013-12-01 04:03:00,
2013-11-30 23:08:00,35.8,28.0,30.41,NW,315,1.2,4.6,73,0.00,CLR,,0.00,WeatherDisplay:10.37,2013-12-01 04:08:00,
2013-11-30 23:13:00,36.0,28.1,30.41,South,180,3.8,5.8,73,0.00,CLR,,0.00,WeatherDisplay:10.37,2013-12-01 04:13:00,
2013-11-30 23:18:00,36.1,28.3,30.41,South,180,4.3,4.6,73,0.00,CLR,,0.00,WeatherDisplay:10.37,2013-12-01 04:18:00,
2013-11-30 23:23:00,36.3,28.5,30.41,SSE,158,4.3,5.8,73,0.00,CLR,,0.00,WeatherDisplay:10.37,2013-12-01 04:23:00,
2013-11-30 23:28:00,36.3,28.5,30.41,SE,135,1.4,2.3,73,0.00,CLR,,0.00,WeatherDisplay:10.37,2013-12-01 04:28:00,
2013-11-30 23:33:00,36.5,28.7,30.41,SSE,158,1.8,5.8,73,0.00,CLR,,0.00,WeatherDisplay:10.37,2013-12-01 04:33:00,
2013-11-30 23:38:00,36.7,28.8,30.41,South,180,3.6,4.6,73,0.00,CLR,,0.00,WeatherDisplay:10.37,2013-12-01 04:38:00,
2013-11-30 23:43:00,36.9,29.0,30.40,SSW,202,2.6,3.5,73,0.00,CLR,,0.00,WeatherDisplay:10.37,2013-12-01 04:43:00,
2013-11-30 23:48:00,37.0,29.2,30.40,South,180,2.2,2.3,73,0.00,CLR,,0.00,WeatherDisplay:10.37,2013-12-01 04:48:00,
2013-11-30 23:53:00,37.0,29.2,30.39,South,180,3.8,3.8,73,0.00,CLR,,0.00,WeatherDisplay:10.37,2013-12-01 04:53:00,
2013-11-30 23:58:00,37.0,29.2,30.39,South,180,6.9,6.9,73,0.00,CLR,,0.00,WeatherDisplay:10.37,2013-12-01 04:58:00,